DECAYED

OBJECT C, 62265 (Decayed)

Orbit data source: Space-Track

You're viewing an Uncataloged Satellite

Recently launched and/or uncataloged satellites may have evolving metadata. Metadata may include but not limited to: Owner, Maufacturer, Bus, Motor, and Mission.

OBJECT C, 62265 was a satellite owned by IRSA (IR) in LEO that was launched on Fri, 06 Dec 2024 UTC via an SIMORGH launch vehicle from the Semnan, Iran (SEM). Unknown objects in Earth's orbit typically refer to objects detected orbiting the Earth but have not yet been identified or cataloged. These objects could be anything from previously untracked satellites, spent rocket stages, debris from satellite collisions, or even natural meteoroids temporarily captured by Earth's gravity. This object's orbit decayed before it could be identified.

Not visible in the next 10 days
Identifier
62265, 2024-236C
Orbit
Decayed
Last TLE update
5 months ago
Origin
Flag of UnknownIRSA (Unknown / IRAN)
Manufacturer
IEI
Mission
Decayed Civil Technology
Bus & Motor
FAKHR, Unknown motor
Mass
5 kg wet, 5 kg dry
Launch date (UTC)
2024-12-06 (7 months ago)
Launch vehicle
SIMORGH
Launch site
Semnan, Iran (SEM)
Object type
Unknown
Shape & HBR
Box, 0.3 m
Radar Cross Section
0.035 m², Small (<0.1 m²)

Expand to show TLE details & history

TLE from 5 months ago
0 OBJECT C
1 62265U 24236C   25021.46258119  .08699274  10950-4  67855-3 0  9992
2 62265  58.5427 179.2943 0014353 266.2054  93.7422 16.39187091  7357
Epoch: 2025-01-21T11:06Z
TLE epoch observation values (Epoch: 2025-01-21T11:06:07.014Z)
Latitude
-0.00003°
Longitude
-108.3034°
Altitude
170.12 km
Speed
7.805 km/s
True Right ascension
11h 57m 10s
True Declination
0° 00' 00"
Sunlit
Object was in full shadow at epoch
Visualization orbit readout
Visualization observer readout
Orbital elements
Apogee altitude
176.749 km
Perigee altitude
157.96 km
Semi-major axis
6,545.491 km
Eccentricity
0.00144
Inclination
58.5427°
RAAN
179.2943°
Arg. of periapsis
266.2054°
True anomaly
Unknown
Mean anomaly
93.7422°
Eccentric anomaly
Unknown
Mean motion
4.09855 °/min
Orbital period
87.84 mins
BSTAR
0.00067855
Loading maneuver chart data...
Loading SW <> Apogee altitude chart data...
Loading historical data...
Loading historical data...
Loading historical data...
Loading historical data...
Loading historical data...
Loading historical data...
Loading historical data...
Other satellites on launch #236 in the year 2024 (2024-12-06 UTC)

OBJECT C Visibility

Observer location: undefined°, undefined°

This satellite is decayed
Span
Click to sort rows by Start time (UTC) header in descending order
Start Az.
Max El. time (UTC)
Max El. Az.
Max El.
End time (UTC)
End Az.
|